Location: College Park
(38.9810°N, 76.9370°W)
Time: 20:11:34
(UTC-05:00)

OTV 5 (USA 277) - Pass Details

Date: 10 January 2018
Orbit: 404 x 417 km, 43.0° (Epoch: 07 September)

Event Time Altitude Azimuth Distance (km) Brightness Sun altitude
Exits shadow 05:48:35 64° 240° (WSW) 449 ? -18.6°
Maximum altitude 05:48:50 68° 205° (SSW) 435 ? -18.5°
Drops below altitude 10° 05:52:06 10° 121° (ESE) 1,450 ? -17.9°
Sets 05:54:11 0° 119° (ESE) 2,307 ? -17.5°
